Wetbulb
46.32 45.71 45.47 45.84 46.13 45.83 43.87 43.91 43.98 42.46 42.78 45.35 44.23 42.68 41.86 41.24 41.98 43.54 44.73 44.07 42.81 43.05 43.40 41.90 40.74 38.87 36.60 35.84 35.01 34.47 34.75 34.59 32.83 34.68 35.50 37.90 38.35 38.85 41.37 42.64 44.63 43.00 44.16
46.53 46.00 45.97 45.91 45.69 44.27 43.33 44.24 45.32 42.81 42.58 44.97 43.53 42.07 41.83 40.91 40.00 42.03 43.03 44.59 43.29 42.22 42.81 41.72 41.33 42.75 37.27 36.82 35.46 34.64 34.68 34.16 34.69 33.98 35.41 37.37 37.81 38.39 39.78 40.04 42.87 44.31 43.15
46.90 46.18 45.33 45.12 43.56 43.64 44.23 44.51 45.47 44.18 42.38 44.09 42.66 41.45 41.23 40.70 39.48 40.03 40.92 41.85 42.45 43.07 41.63 41.81 41.17 40.40 37.59 36.68 35.30 35.18 35.31 37.40 35.02 34.06 34.93 36.01 36.99 37.53 38.20 38.88 39.62 39.48 43.51
46.89 45.65 44.86 44.88 44.72 44.64 43.39 44.19 45.92 44.90 43.03 43.14 42.15 41.82 41.44 40.25 39.78 40.05 40.58 39.92 40.34 42.02 42.97 43.09 42.52 41.32 39.22 37.68 36.74 36.40 36.50 36.08 35.62 34.68 34.95 35.43 35.48 37.38 36.86 36.12 36.23 37.35 38.02
46.71 45.64 45.32 45.72 45.48 44.00 44.48 45.46 44.85 45.79 43.73 44.39 42.58 41.34 40.42 40.12 40.60 38.85 39.56 39.35 38.39 39.52 41.27 42.68 43.40 44.99 48.06 44.66 38.94 38.84 38.68 36.66 36.32 35.44 34.41 33.42 34.11 34.05 34.36 35.09 33.99 36.34 38.05
46.28 46.04 46.55 46.16 45.49 45.55 43.93 44.69 45.18 45.47 42.90 42.89 43.19 42.17 40.29 41.85 43.86 45.34 44.33 38.76 38.53 38.21 39.73 41.59 40.82 45.35 45.70 50.53 50.29 48.51 46.46 42.09 39.78 34.38 34.05 33.04 34.30 33.95 35.30 34.32 37.21 37.24 35.65
46.36 47.02 47.34 46.12 46.66 46.90 44.93 44.79 44.33 43.79 43.62 42.76 42.26 42.11 42.88 42.14 44.26 44.48 46.05 40.48 39.16 37.72 38.21 39.89 40.20 43.36 44.58 43.11 43.33 45.01 43.44 44.21 44.34 38.70 35.65 35.82 37.84 39.29 38.66 38.58 38.06 37.05 36.18
46.19 47.22 47.59 46.95 46.80 44.54 43.95 43.84 43.31 43.14 43.28 42.75 42.40 42.26 41.69 43.14 45.60 44.85 45.58 43.94 41.65 41.95 38.88 40.99 40.24 40.24 41.32 42.35 40.05 38.19 38.38 38.30 38.47 40.87 38.91 40.25 40.79 40.07 39.91 40.25 39.21 38.06 38.06
46.39 46.86 47.70 47.34 45.22 43.46 43.52 42.63 41.81 41.45 41.71 42.24 43.01 42.83 42.22 42.68 44.53 44.27 44.41 44.99 42.02 42.39 43.49 41.53 41.60 41.23 42.29 42.75 39.83 37.74 38.06 38.22 41.95 44.39 43.07 42.66 41.92 42.19 41.94 40.08 37.31 36.38 35.23
46.69 47.49 48.81 47.32 44.05 43.06 42.58 41.88 41.98 42.47 43.23 43.98 44.25 44.05 44.89 43.68 44.94 43.96 43.23 42.52 41.93 42.23 41.03 39.85 43.35 42.51 42.25 41.50 38.81 37.54 36.79 37.94 39.62 38.00 38.37 40.49 40.92 40.75 42.21 40.19 38.90 36.09 36.05
47.71 48.08 46.01 44.18 43.77 43.23 41.99 41.56 42.13 42.20 42.51 42.27 42.94 43.70 44.64 45.01 45.85 44.38 43.72 42.84 42.36 40.52 39.56 39.43 39.23 41.54 40.97 40.68 40.95 38.04 37.59 37.67 38.36 37.46 39.32 39.43 40.67 40.01 39.91 40.43 40.37 39.21 37.15
47.61 45.25 43.29 43.11 44.34 44.19 41.98 41.59 41.82 41.95 42.14 42.14 42.46 44.07 45.06 44.21 43.72 42.59 42.23 42.63 42.44 38.97 38.10 38.04 38.50 40.30 40.09 40.70 40.08 40.16 40.01 39.11 36.45 39.45 39.80 39.41 39.16 39.31 39.62 40.11 40.71 40.71 40.97
44.64 42.36 41.84 42.80 43.03 43.36 41.99 41.58 41.14 41.59 41.66 42.49 43.61 43.29 43.92 41.64 41.34 41.40 40.40 41.15 42.15 38.04 38.66 40.75 41.22 40.17 40.01 39.02 40.76 40.30 39.53 36.93 37.86 39.27 39.15 38.97 39.52 39.95 40.33 39.91 40.86 41.15 41.40
42.36 41.85 42.11 42.24 42.23 42.68 44.03 43.95 42.74 42.52 41.95 42.42 42.11 42.78 42.22 40.07 38.40 37.79 37.66 36.95 39.72 39.42 40.09 39.66 41.05 40.04 39.91 38.97 38.49 38.87 38.08 39.75 39.95 39.78 39.20 39.90 40.40 39.56 38.93 39.57 38.78 39.70 39.18
42.68 43.21 42.83 43.30 42.83 42.52 42.42 42.78 43.28 43.46 43.14 42.80 43.41 41.14 40.08 38.47 39.07 38.20 36.77 37.04 36.39 37.02 39.12 37.15 36.19 34.93 34.95 35.85 36.76 37.46 39.56 39.96 40.46 40.27 39.38 38.82 38.65 38.75 38.33 39.35 39.07 38.98 38.24
42.22 42.14 42.33 42.52 43.00 43.05 42.81 42.96 42.28 41.02 39.06 38.82 39.12 41.02 39.38 39.08 38.81 38.30 37.77 37.53 37.72 38.83 36.71 34.40 33.52 33.76 34.86 35.14 37.49 38.79 39.30 41.52 40.69 40.19 39.15 38.57 38.01 37.78 37.72 38.13 38.75 38.40 38.03
43.02 42.82 42.83 43.72 43.69 43.15 41.68 41.34 41.93 41.41 39.47 38.37 37.74 37.74 38.58 38.58 38.15 38.01 37.85 37.33 36.75 37.08 34.32 33.51 33.98 35.26 35.86 38.57 39.42 39.51 39.99 40.76 40.76 39.65 38.88 38.36 38.18 37.93 37.27 37.36 38.06 38.50 38.54
44.69 44.03 43.84 41.81 40.98 40.27 42.32 43.35 41.70 39.38 37.44 38.22 38.16 37.94 37.47 37.54 37.56 37.71 37.85 37.87 36.42 36.20 34.13 34.32 34.90 35.86 38.81 40.44 40.97 40.46 40.09 40.04 39.52 38.98 38.67 38.50 38.13 37.45 36.83 37.00 37.70 37.96 38.39
45.05 43.48 43.23 42.56 41.86 42.92 41.70 41.39 40.47 39.25 37.95 36.99 37.29 38.75 38.73 37.59 37.33 37.33 37.56 36.16 35.01 34.57 34.49 35.82 35.70 38.97 40.59 41.13 40.71 40.19 39.69 39.00 38.16 38.49 38.29 38.13 37.93 37.44 36.63 37.55 38.11 36.69 37.07
44.46 43.11 41.55 41.21 40.88 41.46 40.24 40.14 39.48 38.04 37.92 38.25 37.53 37.51 37.75 37.95 36.75 36.03 36.53 35.74 34.99 34.81 35.75 35.78 35.95 39.13 40.87 41.10 40.32 39.30 38.53 37.98 37.95 37.72 37.39 37.40 37.39 37.24 36.88 37.37 38.13 38.52 39.60
44.00 43.89 42.16 43.93 42.71 41.74 38.64 39.67 38.80 38.46 38.03 37.70 36.97 35.66 32.68 36.55 35.54 35.35 35.45 35.92 35.33 35.83 36.07 35.29 34.77 38.56 41.00 41.08 39.90 38.46 37.43 37.13 37.37 37.39 36.85 36.29 36.11 35.73 37.18 38.29 39.21 40.28 40.71
43.92 43.95 44.22 44.19 42.61 39.58 37.75 38.65 38.12 38.30 37.82 36.81 36.13 36.09 33.31 36.28 35.82 35.35 35.68 35.83 36.17 36.38 36.27 35.27 34.90 38.96 39.96 39.85 38.44 36.88 35.73 35.39 36.08 35.88 34.98 34.81 35.18 35.88 37.00 37.91 38.65 39.36 41.39
44.30 44.52 46.12 44.31 39.41 37.79 37.78 38.15 39.20 37.51 37.05 37.07 37.12 36.70 36.18 35.44 35.26 35.24 36.16 36.69 36.91 36.89 36.22 35.88 35.91 38.42 39.15 38.63 37.56 35.79 33.93 33.58 33.93 33.93 33.03 33.73 34.60 35.88 36.98 36.83 38.23 37.91 40.06
43.62 43.78 42.56 39.22 38.55 37.25 37.35 37.79 36.63 36.24 37.07 36.71 36.31 35.69 35.30 35.40 35.80 35.96 36.03 36.34 36.38 36.04 35.95 35.58 36.84 38.55 37.67 36.53 35.56 34.19 34.16 33.52 32.86 33.28 33.99 33.73 34.62 36.38 37.83 36.70 37.99 40.27 39.34
41.55 40.66 40.34 38.58 39.95 37.16 36.52 35.87 35.99 36.27 36.44 36.41 36.37 35.82 35.23 35.44 35.09 35.41 34.79 34.48 34.50 34.38 34.62 35.11 35.42 38.40 38.21 36.08 33.98 32.40 32.06 31.68 32.19 32.52 32.95 34.42 35.75 37.01 38.22 37.09 36.52 37.55 38.17
41.09 40.55 39.33 40.30 38.76 36.97 35.44 34.78 34.93 35.94 36.30 36.30 35.78 35.01 34.84 34.00 32.89 32.33 32.33 32.63 31.88 32.09 32.96 33.39 34.38 35.80 36.16 35.30 33.37 31.46 31.07 31.45 31.83 31.60 31.30 35.82 36.73 36.56 36.00 35.04 34.39 36.75 38.77
MSLP
1020.88 1021.07 1021.35 1021.59 1021.83 1021.95 1022.04 1021.98 1021.86 1021.78 1021.71 1021.68 1021.73 1021.77 1021.65 1021.60 1021.47 1021.26 1021.12 1020.97 1020.99 1020.98 1020.89 1020.82 1020.74 1020.72 1020.74 1020.71 1020.72 1020.75 1020.85 1020.80 1020.78 1019.78 1019.10 1018.09 1017.62 1017.02 1016.33 1015.82 1015.30 1014.93 1014.46
1020.62 1020.89 1021.24 1021.53 1021.72 1021.84 1021.96 1021.84 1021.62 1021.71 1021.75 1021.52 1021.69 1021.87 1021.87 1021.80 1021.74 1021.58 1021.37 1021.19 1021.13 1021.08 1020.98 1020.89 1020.76 1020.62 1020.47 1020.41 1020.50 1020.61 1020.62 1020.55 1020.74 1020.20 1019.10 1018.19 1017.56 1016.81 1016.48 1016.05 1015.31 1014.70 1014.33
1020.45 1020.83 1021.20 1021.50 1021.65 1021.74 1021.75 1021.68 1021.58 1021.63 1021.74 1021.64 1021.72 1021.85 1021.89 1021.87 1021.82 1021.69 1021.53 1021.33 1021.22 1021.10 1020.96 1020.91 1020.72 1020.57 1020.48 1020.39 1020.28 1020.28 1020.14 1020.00 1020.19 1020.19 1019.55 1018.42 1017.56 1016.71 1016.32 1015.79 1015.32 1014.82 1014.16
1020.20 1020.78 1021.11 1021.30 1021.37 1021.45 1021.52 1021.48 1021.44 1021.55 1021.68 1021.83 1021.71 1021.83 1021.86 1021.82 1021.74 1021.61 1021.46 1021.25 1021.10 1020.97 1020.87 1020.65 1020.34 1020.16 1020.11 1019.96 1019.90 1019.75 1019.78 1019.65 1019.44 1019.51 1019.16 1018.42 1017.69 1016.65 1016.40 1016.07 1015.32 1014.72 1014.17
1020.02 1020.60 1020.86 1020.85 1021.08 1021.26 1021.29 1021.27 1021.37 1021.52 1021.53 1021.67 1021.78 1021.81 1021.82 1021.70 1021.58 1021.41 1021.27 1021.16 1021.09 1020.83 1020.51 1020.35 1020.06 1019.74 1019.53 1019.47 1019.48 1019.28 1019.26 1019.30 1018.99 1018.89 1018.75 1018.33 1017.69 1017.02 1016.64 1016.05 1015.58 1014.75 1013.97
1019.75 1020.21 1020.43 1020.64 1020.84 1020.98 1021.12 1021.18 1021.26 1021.38 1021.58 1021.69 1021.75 1021.71 1021.66 1021.50 1021.24 1021.16 1021.04 1020.97 1020.84 1020.75 1020.57 1020.04 1019.78 1019.38 1018.96 1018.89 1018.82 1018.90 1018.77 1018.58 1018.45 1018.63 1018.36 1018.09 1017.43 1016.74 1016.12 1015.78 1015.25 1014.67 1013.66
1019.48 1019.93 1020.14 1020.37 1020.62 1020.70 1020.96 1021.16 1021.26 1021.45 1021.51 1021.60 1021.66 1021.60 1021.47 1021.25 1021.01 1020.82 1020.70 1020.71 1020.57 1020.47 1020.17 1019.86 1019.55 1019.11 1018.81 1018.57 1018.53 1018.44 1018.15 1017.91 1017.77 1017.73 1017.76 1017.51 1016.87 1016.23 1015.96 1015.40 1014.94 1014.60 1013.94
1019.37 1019.67 1019.85 1020.15 1020.34 1020.65 1020.97 1021.22 1021.20 1021.37 1021.49 1021.57 1021.49 1021.34 1021.19 1020.85 1020.69 1020.45 1020.26 1020.28 1020.27 1019.86 1019.50 1019.66 1019.55 1018.91 1018.30 1018.22 1018.22 1018.18 1017.80 1017.53 1017.22 1017.08 1017.04 1016.73 1016.25 1015.82 1015.53 1015.10 1014.68 1014.29 1013.55
1019.05 1019.38 1019.69 1019.93 1020.29 1020.62 1021.02 1021.21 1021.21 1021.34 1021.41 1021.39 1021.28 1021.13 1021.00 1020.47 1020.18 1019.96 1019.94 1019.85 1019.65 1019.20 1018.97 1019.27 1018.99 1018.60 1018.09 1017.94 1018.10 1018.06 1017.72 1017.09 1016.79 1016.75 1016.49 1016.08 1015.77 1015.31 1014.96 1014.70 1014.40 1014.05 1013.27
1018.79 1019.12 1019.37 1019.70 1020.06 1020.62 1020.77 1021.05 1021.07 1021.08 1021.14 1021.13 1020.98 1020.81 1020.63 1020.26 1019.59 1019.38 1019.46 1019.40 1019.39 1019.02 1018.77 1018.64 1018.48 1018.33 1018.10 1017.88 1017.91 1017.87 1017.57 1017.02 1016.95 1016.66 1016.10 1015.61 1015.30 1014.93 1014.62 1014.52 1014.28 1013.79 1013.26
1018.58 1018.97 1019.34 1019.63 1019.89 1020.19 1020.62 1020.84 1020.83 1021.01 1021.06 1021.05 1020.92 1020.46 1020.18 1019.78 1019.25 1019.05 1018.87 1018.88 1019.02 1019.11 1019.02 1018.69 1018.31 1018.09 1017.88 1017.63 1017.52 1017.34 1017.27 1017.16 1016.98 1016.59 1015.96 1015.49 1015.12 1014.76 1014.44 1014.10 1013.85 1013.52 1013.05
1018.54 1019.08 1019.45 1019.63 1019.90 1020.24 1020.54 1020.65 1020.78 1020.99 1021.15 1020.99 1020.82 1020.28 1019.59 1019.31 1019.20 1018.86 1018.69 1018.71 1018.80 1018.88 1018.91 1018.75 1018.43 1018.09 1017.78 1017.49 1017.25 1017.13 1017.27 1017.11 1016.81 1016.24 1015.72 1015.30 1014.91 1014.60 1014.19 1013.80 1013.34 1012.92 1012.52
1018.49 1019.02 1019.36 1019.59 1019.89 1020.17 1020.52 1020.77 1020.88 1020.90 1020.87 1020.59 1020.50 1020.05 1019.49 1019.03 1019.03 1019.03 1019.05 1018.90 1018.86 1018.84 1018.82 1018.70 1018.46 1018.22 1017.92 1017.60 1017.44 1017.48 1017.29 1017.03 1016.76 1016.15 1015.64 1015.20 1014.87 1014.44 1013.95 1013.44 1012.91 1012.39 1011.85
1018.51 1019.14 1019.40 1019.77 1020.08 1020.18 1020.26 1020.37 1020.56 1020.40 1020.41 1020.18 1019.85 1019.57 1019.24 1019.03 1019.15 1019.21 1019.23 1019.12 1019.01 1018.93 1018.79 1018.68 1018.64 1018.41 1018.22 1018.10 1017.81 1017.53 1017.22 1016.95 1016.54 1016.00 1015.61 1015.10 1014.62 1014.15 1013.66 1013.17 1012.64 1012.06 1011.55
1018.51 1019.17 1019.53 1019.86 1020.09 1020.20 1020.27 1020.20 1020.19 1019.78 1019.72 1019.50 1019.09 1019.21 1019.14 1019.23 1019.26 1019.37 1019.38 1019.32 1019.26 1019.10 1018.92 1018.98 1019.05 1019.06 1018.83 1018.54 1018.08 1017.57 1017.07 1016.61 1016.21 1015.86 1015.51 1015.03 1014.49 1013.96 1013.41 1012.91 1012.48 1011.97 1011.46
1018.49 1018.95 1019.38 1019.78 1020.00 1020.08 1020.02 1019.81 1019.64 1019.42 1019.25 1018.82 1018.76 1019.09 1019.14 1019.09 1019.31 1019.44 1019.45 1019.49 1019.40 1019.28 1019.56 1019.82 1019.77 1019.51 1019.08 1018.50 1018.02 1017.47 1016.89 1016.40 1016.11 1015.75 1015.33 1014.92 1014.45 1013.92 1013.36 1012.70 1012.22 1011.72 1011.15
1018.42 1018.86 1019.10 1019.44 1019.79 1019.84 1019.82 1019.75 1019.88 1019.58 1019.43 1019.40 1019.10 1019.14 1019.31 1019.59 1019.68 1019.81 1019.87 1019.80 1019.75 1019.69 1020.18 1020.22 1020.07 1019.60 1018.98 1018.42 1017.94 1017.47 1016.90 1016.44 1016.10 1015.71 1015.29 1014.79 1014.35 1013.79 1013.29 1012.67 1012.04 1011.50 1010.89
1018.43 1018.92 1019.24 1019.28 1019.50 1019.62 1019.48 1019.33 1019.58 1019.79 1020.14 1020.12 1020.00 1019.87 1019.96 1020.05 1020.16 1020.28 1020.23 1020.06 1020.43 1020.35 1020.60 1020.48 1020.13 1019.55 1018.91 1018.35 1017.90 1017.46 1016.92 1016.45 1016.08 1015.72 1015.16 1014.76 1014.32 1013.85 1013.21 1012.58 1011.99 1011.50 1010.84
1018.29 1018.60 1018.99 1019.17 1019.35 1019.15 1019.09 1019.17 1019.37 1019.85 1020.31 1020.57 1020.76 1020.65 1020.66 1020.59 1020.64 1020.69 1020.63 1020.93 1021.09 1021.00 1020.92 1020.61 1020.13 1019.51 1018.91 1018.47 1018.05 1017.57 1017.11 1016.66 1016.28 1015.75 1015.18 1014.75 1014.23 1013.75 1013.10 1012.55 1011.86 1011.24 1010.70
1018.02 1018.18 1018.56 1018.93 1018.97 1018.95 1019.11 1019.48 1019.84 1020.21 1020.55 1020.86 1021.18 1021.33 1021.24 1021.08 1021.42 1021.61 1021.43 1021.34 1021.24 1021.22 1021.02 1020.69 1020.16 1019.58 1019.07 1018.55 1018.17 1017.81 1017.37 1016.78 1016.32 1015.79 1015.28 1014.74 1014.15 1013.62 1012.98 1012.30 1011.65 1011.06 1010.36
1018.12 1018.17 1018.45 1018.57 1018.77 1018.94 1019.37 1019.77 1020.17 1020.50 1020.92 1021.36 1021.68 1021.77 1021.66 1021.90 1022.16 1022.11 1021.89 1021.52 1021.45 1021.36 1021.16 1020.84 1020.33 1019.73 1019.18 1018.75 1018.42 1018.03 1017.52 1016.87 1016.42 1015.89 1015.30 1014.72 1014.15 1013.41 1012.78 1012.10 1011.41 1010.73 1010.06
1017.96 1017.97 1018.09 1018.30 1018.59 1019.14 1019.61 1019.99 1020.49 1020.93 1021.41 1021.80 1022.20 1022.24 1022.11 1022.27 1022.35 1022.26 1021.96 1021.78 1021.65 1021.50 1021.28 1021.02 1020.52 1019.89 1019.46 1019.10 1018.73 1018.31 1017.77 1017.19 1016.59 1015.99 1015.39 1014.78 1014.11 1013.33 1012.60 1011.88 1011.18 1010.43 1009.64
1017.47 1017.62 1017.90 1018.35 1018.85 1019.41 1019.98 1020.53 1021.03 1021.47 1021.92 1022.27 1022.47 1022.61 1022.65 1022.71 1022.63 1022.40 1022.17 1021.96 1021.83 1021.59 1021.36 1021.04 1020.64 1019.96 1019.59 1019.28 1018.93 1018.62 1018.17 1017.53 1016.96 1016.35 1015.53 1014.72 1013.96 1013.15 1012.39 1011.61 1010.82 1010.01 1009.25
1017.33 1017.58 1018.12 1018.70 1019.26 1019.80 1020.30 1020.91 1021.48 1021.91 1022.32 1022.68 1022.90 1023.06 1023.12 1023.04 1022.91 1022.72 1022.49 1022.26 1021.97 1021.79 1021.51 1021.19 1020.72 1020.07 1019.73 1019.40 1018.98 1018.62 1018.13 1017.62 1016.93 1016.11 1015.45 1014.70 1013.79 1012.85 1012.08 1011.20 1010.33 1009.49 1008.83
1017.58 1018.04 1018.65 1019.18 1019.86 1020.45 1021.04 1021.58 1022.04 1022.41 1022.77 1023.07 1023.32 1023.41 1023.41 1023.39 1023.32 1023.19 1022.97 1022.63 1022.37 1022.09 1021.75 1021.39 1020.96 1020.23 1019.71 1019.43 1019.03 1018.55 1017.90 1017.27 1016.61 1015.86 1015.01 1014.25 1013.49 1012.59 1011.71 1010.91 1010.08 1009.24 1008.51
1018.18 1018.56 1019.20 1019.71 1020.41 1020.96 1021.59 1022.17 1022.63 1022.94 1023.31 1023.53 1023.65 1023.69 1023.77 1023.83 1023.79 1023.62 1023.37 1023.03 1022.76 1022.43 1022.02 1021.61 1021.16 1020.56 1019.97 1019.47 1019.06 1018.45 1017.73 1017.00 1016.27 1015.51 1014.78 1013.85 1013.20 1012.40 1011.63 1010.84 1010.09 1009.42 1008.77
Wind_Speed
6 6 6 4 3 3 3 3 3 1 2 3 4 3 5 5 5 5 4 4 6 3 2 3 2 1 1 1 2 1 2 2 2 4 4 4 4 5 6 6 6 6 6
7 6 6 3 3 3 4 5 4 3 1 4 4 3 4 4 4 4 4 3 4 3 2 3 4 2 2 3 3 3 2 2 3 6 3 4 3 4 5 6 6 7 6
7 6 5 4 4 5 5 4 4 4 2 3 4 3 3 2 2 3 3 3 3 2 4 5 6 4 4 2 3 3 2 2 3 3 5 3 4 3 4 4 5 6 6
7 7 6 6 7 5 5 5 4 5 4 3 4 3 1 0 0 1 3 4 5 4 4 5 7 6 6 7 5 5 4 4 2 3 4 4 4 4 3 4 5 2 6
7 7 7 6 5 4 4 3 3 3 5 5 4 3 3 2 3 3 2 3 4 7 6 6 6 9 15 10 3 6 4 4 3 4 4 3 4 4 4 3 4 6 7
7 7 6 6 5 6 4 3 2 4 5 3 3 5 5 4 7 8 5 4 4 4 6 7 6 10 10 13 13 12 10 4 5 2 3 4 6 4 3 3 4 6 7
7 6 6 6 5 5 4 3 3 3 3 4 4 4 5 6 9 11 9 4 5 6 6 5 6 4 9 6 9 12 12 10 8 3 4 4 6 5 4 7 6 6 7
7 6 6 6 5 5 4 5 2 2 4 3 5 5 6 6 10 12 11 6 4 9 7 3 6 8 6 6 5 7 7 5 5 3 3 6 6 6 6 7 6 6 7
7 6 6 6 5 6 6 5 3 2 2 4 4 6 7 8 11 14 8 6 6 10 6 1 6 7 9 8 5 6 7 6 4 6 8 10 12 12 9 3 4 6 5
7 7 6 6 6 7 6 5 3 3 4 3 6 6 7 9 13 12 6 4 6 5 6 5 8 7 10 8 3 4 6 5 4 7 8 9 8 7 11 3 4 6 6
6 6 5 6 7 7 5 3 3 3 4 5 6 6 7 7 9 10 7 2 3 3 3 5 5 8 9 9 3 4 4 2 5 6 7 5 6 6 5 5 5 5 6
6 6 6 6 4 4 5 3 3 3 5 6 6 6 5 5 3 6 5 4 4 1 2 3 5 10 9 9 7 3 5 3 4 6 6 6 6 5 6 7 8 7 6
7 7 6 6 5 3 3 5 3 3 4 5 4 5 5 4 2 7 6 5 3 1 1 4 7 7 9 7 8 5 4 4 5 6 6 6 5 6 8 7 7 8 7
8 7 5 4 3 3 3 3 3 4 4 5 5 5 5 3 1 2 2 4 5 3 4 4 5 4 7 5 2 4 4 4 5 5 5 6 6 5 6 5 5 6 6
7 5 4 3 3 3 3 5 4 6 6 5 6 3 3 2 2 2 1 1 2 0 3 4 5 4 4 4 4 5 6 4 5 5 5 6 6 6 6 5 5 6 5
6 5 4 2 2 2 3 5 7 7 7 5 5 5 1 4 6 3 3 3 6 5 5 4 4 3 4 4 5 6 5 7 5 5 5 5 6 6 6 7 5 5 6
6 4 2 1 3 4 2 3 3 4 10 8 9 9 7 6 6 6 7 10 10 7 3 3 3 4 5 6 5 5 6 6 6 5 6 6 6 7 7 7 7 6 6
5 5 2 2 2 1 4 4 3 3 2 3 9 7 9 8 8 9 7 7 5 5 3 2 3 5 6 6 6 6 6 6 6 6 7 6 6 6 7 7 6 6 7
4 4 3 2 2 4 2 2 4 5 4 4 3 6 6 10 10 9 8 4 3 3 2 3 4 5 5 5 6 6 6 7 7 7 7 7 6 6 7 6 7 8 7
3 2 2 2 2 2 3 4 4 4 4 4 4 2 2 5 4 4 4 3 3 2 2 4 5 5 5 6 6 6 7 7 6 6 7 7 7 6 6 7 6 7 6
3 2 3 1 2 4 3 4 4 5 5 4 3 3 4 4 2 3 3 3 3 2 3 4 5 5 6 6 6 7 7 7 6 7 7 7 7 8 7 7 7 6 6
3 2 1 0 3 5 4 5 5 5 5 5 3 2 6 3 3 3 3 3 2 2 2 3 4 5 6 6 7 7 7 8 8 8 8 8 7 8 7 6 7 7 7
4 0 1 4 5 6 5 5 5 5 5 5 4 3 3 3 3 3 3 3 2 3 4 4 4 6 6 6 5 5 7 8 8 8 9 8 8 8 7 8 7 7 6
3 4 6 6 5 5 5 5 5 6 5 5 4 3 3 3 4 4 3 3 4 4 4 4 5 6 7 7 6 6 6 7 7 8 10 8 8 9 8 7 7 9 7
5 6 6 6 6 5 5 5 5 5 5 4 3 2 3 4 4 4 4 4 4 4 5 5 5 9 9 10 11 13 12 13 10 11 7 8 9 11 7 7 8 8 7
6 8 6 6 6 5 5 5 5 5 5 4 3 4 4 4 3 4 4 4 4 5 6 5 7 13 12 9 13 15 15 15 13 14 9 7 7 8 7 8 11 7 7
Wind_Direction
174 165 159 189 218 242 213 254 266 320 89 110 94 68 56 44 20 45 45 65 76 57 33 56 51 53 3 45 92 70 7 9 297 291 243 260 283 301 310 314 307 307 301
179 162 181 201 238 214 224 242 231 220 188 148 124 94 74 50 27 36 40 48 63 40 301 299 280 261 348 9 2 341 248 207 212 289 292 303 286 296 282 299 309 313 302
172 169 176 199 203 232 241 249 217 198 185 190 151 154 125 90 37 16 8 10 8 312 289 278 281 287 295 285 266 286 261 248 218 241 282 274 274 291 309 290 279 289 295
167 173 175 198 209 223 232 231 195 190 177 235 189 186 195 200 13 349 352 352 336 319 308 288 277 256 245 252 263 270 284 285 228 245 270 276 263 283 266 272 305 288 295
163 170 193 202 202 220 236 207 177 204 189 196 197 220 244 268 263 262 297 310 313 317 319 305 293 279 263 247 244 276 280 279 284 285 279 280 282 307 296 295 276 298 296
170 185 192 177 192 208 202 227 118 172 180 176 215 228 247 261 268 264 249 278 297 291 301 308 310 311 294 272 267 304 290 264 281 248 268 267 279 268 264 272 291 312 318
169 186 182 171 205 195 201 203 185 203 190 216 236 241 264 263 261 267 264 269 286 294 277 283 308 303 310 263 295 301 301 323 308 247 263 274 290 299 296 290 292 301 294
172 182 169 173 191 162 180 205 196 189 212 234 263 266 266 269 264 267 266 258 257 266 251 279 285 293 291 256 297 294 291 306 311 314 240 269 272 277 291 289 292 287 289
178 183 181 175 167 173 189 206 212 218 243 250 258 277 272 278 267 272 284 277 264 266 288 248 269 286 285 287 301 316 312 296 305 304 327 314 302 299 319 311 308 308 301
183 191 184 172 168 187 189 199 221 217 245 277 281 263 269 275 285 277 257 251 273 292 314 291 276 280 291 316 311 290 288 289 327 325 326 320 308 302 319 308 295 298 300
172 177 169 171 172 184 185 210 225 253 276 286 290 295 281 263 283 298 286 217 239 298 299 319 320 308 309 317 246 264 255 1 317 308 307 306 316 310 312 305 288 276 291
160 156 164 170 184 174 206 245 261 272 285 285 291 297 284 289 287 15 63 191 181 170 333 315 305 323 334 338 344 356 81 355 318 317 310 315 310 310 307 305 297 288 267
148 150 169 167 199 196 216 262 283 270 265 283 281 284 292 300 331 13 36 92 107 82 323 312 329 0 360 0 42 74 2 339 319 310 315 310 309 300 297 299 295 293 284
143 167 165 177 219 263 271 257 257 268 280 265 266 260 269 274 8 334 12 9 357 22 8 8 346 341 40 30 10 331 311 309 300 304 308 308 298 302 301 296 298 304 298
140 162 170 192 235 276 271 253 267 256 223 269 275 229 262 303 234 142 139 338 323 13 43 21 10 3 357 341 316 295 308 302 307 316 312 311 307 306 305 305 296 300 289
145 156 168 201 255 263 278 311 259 273 332 340 277 199 5 84 100 114 55 70 62 60 48 25 358 347 321 305 315 315 307 326 324 316 307 302 306 308 306 306 292 286 290
147 166 180 250 267 254 311 283 317 12 44 24 48 60 97 115 78 99 98 69 41 47 53 20 353 318 308 318 319 313 319 320 314 312 307 304 305 302 307 309 306 304 306
153 154 176 203 232 197 255 262 176 163 101 3 26 62 64 87 86 76 69 53 24 21 37 4 315 319 331 335 337 333 323 321 325 316 310 309 309 304 311 310 311 309 311
154 157 176 203 203 241 297 67 112 112 97 97 89 40 37 73 71 54 46 64 30 8 353 334 323 332 334 333 330 323 320 317 316 313 317 316 313 311 309 307 304 300 297
141 127 156 61 328 354 100 119 106 98 90 94 91 75 2 46 43 17 19 23 28 43 2 341 329 330 334 329 329 328 325 323 323 322 319 315 311 306 300 301 305 305 303
139 119 106 199 207 130 125 128 120 105 98 92 80 45 59 92 60 20 350 357 37 50 5 344 328 328 339 334 338 334 326 315 318 318 318 313 308 310 306 297 295 294 287
133 120 109 228 129 117 119 117 110 107 107 104 92 58 67 66 42 18 2 34 82 33 346 339 336 337 346 336 338 331 323 321 323 323 318 313 308 304 302 299 304 299 295
142 69 67 107 116 104 90 102 108 113 110 107 109 88 57 42 31 20 29 70 47 10 354 351 333 352 349 339 334 328 318 318 316 311 306 309 305 303 305 296 293 291 288
134 119 114 109 111 109 111 107 108 100 110 112 105 83 59 33 34 28 45 42 33 8 354 342 328 343 343 343 337 333 320 318 309 300 303 296 297 306 304 293 289 290 278
116 113 111 111 108 100 101 97 99 104 108 112 106 78 59 53 42 27 19 13 7 359 346 340 336 342 344 342 340 337 328 325 319 314 306 292 289 298 298 305 315 317 311
105 100 99 105 115 108 103 108 106 109 112 110 99 78 81 67 40 20 7 5 358 348 345 340 342 347 343 344 342 334 335 336 338 335 325 316 322 322 326 326 326 325 328